STARLINK-1311 (45363 NORAD) Tracking and Keplerian Element Data

This shows tracking and keplerian element data for the satellite.

Feedback or suggestion? Click here.




ElementValue
Catalog45363
NameSTARLINK-1311
Epoch Orbit1920
Epoch Day196.52476666
Epoch Year2020
RAAN31.1706
Inclination52.9932
Eccentricity0.0002758
Argument of Perigee158.129
Mean Anonmoly201.9848
Mean Motion15.77418942
Decay Rate0.00143109
L11 45363U 20019D 20196.52476666 .00143109 00000-0 83748-3 0 9994
L22 45363 52.9932 31.1706 0002758 158.1290 201.9848 15.77418942 19201

Live tracking and technical data element details for STARLINK-1311 (NORAD 45363). STARLINK-1311 can be tracked NOW for your location showing map with azimuth and elevation plus other details from your city location.

Track the satellite on the map from your city or location and see movement details for azimuth, elevation, latitude, longitude, range, height, and movement on the map or in text.







IsCatalogInMostPopularTable: catalog: 45363, numindb: 30
Update: records affected: 1



GetName: 45363 STARLINK-1311

Hit Count: updated at: Thu, 16 Jul 2020 03:18:56 GMT